This is the latest recevied weather packets stored in our database for station/object VA7NIC-10. If no packets are shown the sender has not sent any weather packets the latest 10 day(s).
| Time | Temp. | Humidity | Pressure | Rain* | Wind** | Luminosity | Snow |
|---|---|---|---|---|---|---|---|
| 1777508522 | 20° C | 42% | 1021.3 hPa | 0 mm | - | - | - |
| 1777507622 | 20° C | 44% | 1021.5 hPa | 0 mm | - | - | - |
| 1777506722 | 20° C | 46% | 1021.6 hPa | 0 mm | - | - | - |
| 1777505821 | 20° C | 47% | 1021.8 hPa | 0 mm | - | - | - |
| 1777504921 | 19.44° C | 45% | 1021.9 hPa | 0 mm | - | - | - |
| 1777504021 | 19.44° C | 47% | 1022.1 hPa | 0 mm | - | - | - |
| 1777503121 | 19.44° C | 46% | 1022.4 hPa | 0 mm | - | - | - |
| 1777502221 | 19.44° C | 44% | 1022.6 hPa | 0 mm | - | - | - |
| 1777501321 | 18.89° C | 45% | 1022.8 hPa | 0 mm | - | - | - |
| 1777500421 | 19.44° C | 47% | 1022.9 hPa | 0 mm | - | - | - |
| 1777499522 | 18.89° C | 48% | 1023 hPa | 0 mm | - | - | - |
| 1777498622 | 18.89° C | 47% | 1023.1 hPa | 0 mm | - | - | - |
| 1777497722 | 18.89° C | 49% | 1023.2 hPa | 0 mm | - | - | - |
| 1777496822 | 18.89° C | 50% | 1023.4 hPa | 0 mm | - | - | - |
| 1777495922 | 18.89° C | 48% | 1023.5 hPa | 0 mm | - | - | - |
| 1777495022 | 18.89° C | 48% | 1023.8 hPa | 0 mm | - | - | - |
| 1777494122 | 18.89° C | 49% | 1024 hPa | 0 mm | - | - | - |
| 1777493221 | 19.44° C | 50% | 1024.1 hPa | 0 mm | - | - | - |
| 1777492321 | 18.89° C | 53% | 1024.2 hPa | 0 mm | - | - | - |
| 1777491422 | 17.78° C | 56% | 1024.3 hPa | 0 mm | - | - | - |
| 1777490521 | 17.78° C | 59% | 1024.4 hPa | 0 mm | - | - | - |
| 1777489621 | 16.67° C | 61% | 1024.6 hPa | 0 mm | - | - | - |
| 1777488721 | 16.11° C | 66% | 1024.7 hPa | 0 mm | - | - | - |
| 1777487821 | 15.56° C | 68% | 1024.7 hPa | 0 mm | - | - | - |
| 1777486921 | 15° C | 69% | 1024.9 hPa | 0 mm | - | - | - |
* Rain latest hour (hover to see other rain measurements)
** Current wind speed in m/s (hover to see current wind gust speed)